This demonstration page uses our WeatherBlox Daily Observations layout. Learn more.

Left ArrowRight Arrow

Hourly Observations for December 4, 2016

Temp ( °F °C ) Dew Point ( °F °C ) Humidity (%) Winds ( mph kmh ) Pressure ( in mb ) Visibility ( mi km ) Precip ( " mm )
12:51 am 00:51 Clear 36 2.2 33 0.6 89 89 N N/A 29.98 1015 10 16 N/A
1:51 am 01:51 Clear 37 2.8 35 1.7 93 93 undefined N/A 29.99 1016 10 16 N/A
2:51 am 02:51 Clear 35 1.7 33 0.6 93 93 NNE 3 6 30.00 1016 10 16 N/A
3:51 am 03:51 Clear 34 1.1 31 -0.6 89 89 N N/A 30.01 1016 10 16 N/A
4:51 am 04:51 Clear 32 undefined 30 -1.1 92 92 NNE 8 13 30.01 1016 10 16 N/A
5:51 am 05:51 Clear 31 -0.6 29 -1.7 92 92 N N/A 30.04 1017 10 16 N/A
6:51 am 06:51 Clear 29 -1.7 27 -2.8 92 92 SE 3 6 30.07 1018 10 16 N/A
7:51 am 07:51 Sunny 34 1.1 32 undefined 92 92 E 3 6 30.08 1019 10 16 N/A
8:51 am 08:51 Sunny 39 3.9 31 -0.6 73 73 SE 6 9 30.09 1019 10 16 N/A
9:51 am 09:51 Sunny 46 7.8 30 -1.1 54 54 VRB 3 6 30.10 1019 10 16 N/A
10:51 am 10:51 Sunny 50 10 32 undefined 50 50 S 3 6 30.08 1019 10 16 N/A
11:51 am 11:51 Sunny 54 12.2 28 -2.2 37 37 N N/A 30.04 1017 10 16 N/A
12:51 pm 12:51 Sunny 57 13.9 24 -4.4 28 28 E 5 7 30.01 1016 10 16 N/A
1:51 pm 13:51 Sunny 58 14.4 22 -5.6 25 25 N N/A 29.98 1015 10 16 N/A
2:51 pm 14:51 Sunny 60 15.6 22 -5.6 23 23 S 5 7 29.96 1015 10 16 N/A
3:51 pm 15:51 Sunny 60 15.6 20 -6.7 21 21 N N/A 29.97 1015 10 16 N/A
4:51 pm 16:51 Sunny 59 15 20 -6.7 22 22 N N/A 29.97 1015 10 16 N/A
5:51 pm 17:51 Clear with Light Rain 49 9.4 22 -5.6 35 35 N N/A 29.99 1016 10 16 N/A
6:51 pm 18:51 Clear 45 7.2 22 -5.6 40 40 N N/A 30.02 1017 10 16 N/A
7:51 pm 19:51 Clear 43 6.1 24 -4.4 47 47 NE 6 9 30.01 1016 10 16 N/A
8:51 pm 20:51 Clear 41 5 25 -3.9 53 53 E 6 9 30.02 1017 10 16 N/A
9:51 pm 21:51 Clear 38 3.3 25 -3.9 60 60 SE 5 7 30.02 1017 10 16 N/A
10:51 pm 22:51 Clear 40 4.4 24 -4.4 53 53 SSE 3 6 30.01 1016 10 16 N/A
11:51 pm 23:51 Clear 35 1.7 25 -3.9 67 67 SE 3 6 29.99 1016 10 16 N/A

Powered by AerisWeather